This demonstration page uses our WeatherBlox Daily Observations layout. Learn more.

Left ArrowRight Arrow

34.02893, -84.19858

Hourly Observations for February 24, 2020

Temp ( °F °C ) Dew Point ( °F °C ) Humidity (%) Winds ( mph kmh ) Pressure ( in mb ) Visibility ( mi km ) Precip ( " mm )
12:53 am 00:53 Cloudy 46 7.8 40 4.4 79 79 Calm 30.14 1021 10 16 0.00 0.00
1:53 am 01:53 Cloudy 47 8.3 41 5 80 80 Calm 30.11 1020 10 16 0.00 0.00
2:53 am 02:53 Cloudy 47 8.3 40 4.4 77 77 Calm 30.09 1019 10 16 0.00 0.00
3:53 am 03:53 Cloudy 46 7.8 41 5 83 83 Calm 30.09 1019 10 16 0.00 0.00
4:53 am 04:53 Cloudy with Light Rain 46 7.8 39 3.9 77 77 Calm 30.09 1019 8 13 0.00 0.00
5:53 am 05:53 Cloudy with Light Rain 45 7.2 42 5.6 90 90 Calm 30.08 1019 10 16 0.02 0.51
6:53 am 06:53 Cloudy with Light Rain 44 6.7 42 5.6 93 93 Calm 30.07 1018 6 10 0.02 0.51
7:53 am 07:53 Cloudy with Light Rain 43 6.1 41 5 93 93 VRB 3 6 30.09 1019 7 11 0.02 0.51
8:53 am 08:53 Cloudy with Light Rain 44 6.7 42 5.6 93 93 Calm 30.10 1019 8 13 0.00 0.00
9:53 am 09:53 Cloudy with Light Rain 44 6.7 42 5.6 93 93 ENE 5 7 30.10 1019 5 8 0.02 0.51
10:03 am 10:03 Cloudy with Light Rain 44 6.7 42 5.6 93 93 Calm 30.10 1019 4 6 0.01 0.25
10:36 am 10:36 Cloudy with Light Rain 44 6.7 42 5.6 93 93 Calm 30.11 1020 3 5 0.05 1.27
10:53 am 10:53 Cloudy with Light Rain 44 6.7 43 6.1 96 96 VRB 3 6 30.10 1019 3 5 0.07 1.78
11:18 am 11:18 Cloudy with Light Rain 44 6.7 43 6.1 96 96 E 3 6 30.08 1019 3 4 0.02 0.51
11:27 am 11:27 Cloudy with Light Rain 44 6.7 43 6.1 96 96 E 3 6 30.08 1019 3 5 0.04 1.02
11:53 am 11:53 Cloudy with Light Rain 44 6.7 43 6.1 96 96 Calm 30.07 1018 3 5 0.07 1.78
12:06 pm 12:06 Cloudy with Light Rain 44 6.7 44 6.7 100 100 VRB 3 6 30.06 1018 4 6 0.02 0.51
12:31 pm 12:31 Cloudy with Light Rain 45 7.2 44 6.7 97 97 ESE 5 7 30.05 1018 5 8 0.04 1.02
12:53 pm 12:53 Cloudy with Light Rain 45 7.2 44 6.7 97 97 ESE 5 7 30.04 1017 5 8 0.06 1.52
1:53 pm 13:53 Cloudy with Light Rain 45 7.2 44 6.7 97 97 VRB 3 6 30.01 1016 3 5 0.04 1.02
1:56 pm 13:56 Cloudy with Light Rain 45 7.2 44 6.7 97 97 VRB 3 6 30.01 1016 3 4 0.00 0.00
2:12 pm 14:12 Cloudy with Light Rain 45 7.2 44 6.7 97 97 E 5 7 29.99 1016 3 5 0.01 0.25
2:25 pm 14:25 Cloudy with Rain 45 7.2 44 6.7 97 97 VRB 3 6 29.99 1016 2 3 0.04 1.02
2:32 pm 14:32 Cloudy with Light Rain 45 7.2 44 6.7 97 97 E 5 7 29.99 1016 3 5 0.04 1.02
2:53 pm 14:53 Cloudy with Light Rain 45 7.2 44 6.7 97 97 VRB 5 7 29.98 1015 4 6 0.05 1.27
2:59 pm 14:59 Cloudy with Light Rain 45 7.2 44 6.7 97 97 VRB 3 6 29.99 1016 2 3 0.01 0.25
3:53 pm 15:53 Cloudy with Light Rain 45 7.2 44 6.7 97 97 VRB 5 7 29.96 1015 2 3 0.11 2.79
4:04 pm 16:04 Cloudy with Light Rain 45 7.2 45 7.2 100 100 ENE 5 7 29.96 1015 3 5 0.00 0.00
4:53 pm 16:53 Cloudy with Light Rain 46 7.8 45 7.2 96 96 E 3 6 29.94 1014 3 5 0.02 0.51
5:07 pm 17:07 Cloudy with Light Rain 46 7.8 45 7.2 96 96 VRB 5 7 29.94 1014 4 6 0.01 0.25
5:15 pm 17:15 Cloudy with Light Rain 46 7.8 45 7.2 96 96 E 5 7 29.94 1014 4 6 0.02 0.51
5:53 pm 17:53 Cloudy with Light Rain 46 7.8 45 7.2 96 96 VRB 6 9 29.93 1014 3 5 0.06 1.52
6:22 pm 18:22 Cloudy with Rain 46 7.8 45 7.2 96 96 VRB 5 7 29.93 1014 2 3 0.05 1.27
6:53 pm 18:53 Cloudy with Rain 46 7.8 46 7.8 100 100 E 3 6 29.93 1014 2 3 0.14 3.56
7:53 pm 19:53 Cloudy with Light Rain 46 7.8 45 7.2 96 96 VRB 5 7 29.91 1013 2 3 0.09 2.29
8:00 pm 20:00 Cloudy 46 7.8 46 7.8 100 100 Calm 29.91 1013 10 16 0.00 0.00
8:42 pm 20:42 Cloudy with Light Rain 46 7.8 45 7.2 96 96 VRB 7 11 29.89 1012 9 14 0.00 0.00
8:53 pm 20:53 Cloudy with Light Rain 47 8.3 46 7.8 97 97 VRB 5 7 29.91 1013 10 16 0.00 0.00
9:53 pm 21:53 Cloudy with Light Rain 47 8.3 46 7.8 97 97 VRB 3 6 29.91 1013 10 16 0.03 0.76
10:53 pm 22:53 Cloudy with Light Rain 47 8.3 46 7.8 97 97 ESE 9 15 29.83 1010 10 16 0.01 0.25
11:53 pm 23:53 Cloudy 47 8.3 46 7.8 97 97 NNE 5 7 29.87 1012 10 16 0.01 0.25

Powered by AerisWeather